Weather in Kuzemkino

Russia / Ryazan Oblast     54°44′09″N   41°10′49″E
temp.,
°C
wind,
m/s
gust,
m/s
humid.,
%
clouds,
%
prec.,
mm/h
press.,
hPa
HPBL,
m
27 november, sat
sat2700:000ssw61486100 0.0 1014574
03:000ssw51386100 0.0 1014469
06:00−1s5128698 0.0 1015418
09:00−3s41386100 0.0 1015385
12:00−1sse51387100 0.0 1014450
15:00+1sse71591100 0.0 1011453
18:00+1sse71785100 0.0 1009772
21:00+1sse71797100 1.7 1007857
28 november, sun
sun2800:00+2s71693100 0.5 1005690
03:00+2s61595100 0.6 1005529
06:00+2s61497100 0.0 1005470
09:00+2ssw51298100 0.0 1006517
12:00+3ssw51299100 0.1 1007457
15:00+3sw5992100 0.1 1008478
18:00+1ssw4109494 0.0 1010248
21:000ssw3795100 0.0 1011124
29 november, mon
mon2900:000ssw2597100 0.0 1012104
03:00+1s2699100 0.0 1012152
06:00+2se2699100 0.0 1011166
09:00+3ese4996100 0.0 1011190
12:00+4se41196100 0.1 1008301
15:00+5se61597100 3.3 1004632
18:00+6sse71594100 2.5 1000708
21:00+6sse71695100 4.8 995665
30 november, tue
tue3000:00+7sse81793100 3.3 9901028
03:00+8sse81792100 8.1 9851012
06:00+11s91886100 2.5 9811288
09:00+7sw132285100 2.8 9821374
12:00+4sw111874100 0.0 9851283
15:00+4sw101772100 0.2 9861357
18:00+3sw10176998 0.0 9871359
21:00+2sw9156993 0.1 9871465
1 december, wed
wed100:00+1ssw81574100 0.0 9881111
03:00+1sw7137793 0.0 987946
06:000sw61092100 0.4 989903
09:00−2wsw5988100 0.4 991782
12:00−1w5877100 0.2 993930
15:00−2w5775100 0.3 994998
18:00−3w5876100 0.1 996951
21:00−3w487680 0.1 996913